Home   Weather   Chesapeake   Past weeks

Flag for USA Past Weather in Chesapeake, Virginia, USA — Yesterday and Last 2 Weeks

Now
85 °F

Sunny.


Feels Like: 86 °F
Forecast: 70 / 89 °F
Wind: 12 mph from Southwest

Location: Chesapeake Municipal Airport

Current Time: Apr 30, 2017 at 2:57:45 pm

Latest Report: Apr 30, 2017 at 2:15 pm


Visibility: 10 mi

Pressure: 30.13 "Hg

Humidity: 48%

Dew Point: 63 °F

Location of ChesapeakeLocation

Past Weather in Chesapeake — Graph

°F

Chesapeake Temperature Yesterday

Maximum temperature yesterday: 87 °F (at 3:35 pm)
Minimum temperature yesterday: 72 °F (at 6:55 am)
Average temperature yesterday: 78 °F

High & Low Weather Summary for the Past Weeks

 TemperatureHumidityPressure
High87 °F (Apr 29, 3:35 pm)97% (Apr 19, 2:55 am)30.41 "Hg (Apr 19, 2:55 am)
Low47 °F (Apr 19, 1:35 am)30% (Apr 16, 5:15 pm)29.57 "Hg (Apr 25, 8:15 am)
Average68 °F77%30.02 "Hg
* Reported Apr 15 1:15 pm — Apr 30 1:35 pm, Chesapeake, Weather by CustomWeather, © 2017

Note: Actual official high and low records may vary slightly from our data, if they occured in-between our weather recording intervals... More about our weather records

Advertising

Chesapeake Weather History for the Previous 24 Hours

Scroll right to see more
 ConditionsComfort  
Time TempWeatherWind HumidityBarometerVisibility
1:35 pm
Sun, Apr 30
84 °FSunny.15 mph53%30.13 "Hg10 mi
1:15 pm83 °FSunny.12 mph56%30.14 "Hg7 mi
12:55 pm82 °FSunny.8 mph60%30.14 "Hg7 mi
12:35 pm81 °FSunny.13 mph63%30.15 "Hg7 mi
12:15 pm81 °FSunny.10 mph63%30.16 "Hg7 mi
11:55 am81 °FSunny.6 mph64%30.17 "Hg10 mi
11:15 am80 °FSunny.9 mph66%30.17 "Hg10 mi
10:55 am79 °FSunny.6 mph69%30.17 "Hg5 mi
10:35 am77 °FSunny.7 mph70%30.18 "Hg5 mi
10:15 am77 °FScattered clouds.8 mph71%30.19 "Hg7 mi
9:55 am75 °FPartly sunny.8 mph75%30.20 "Hg7 mi
9:35 am75 °FPartly sunny.12 mph76%30.20 "Hg7 mi
8:55 am74 °FOvercast.6 mph79%30.20 "Hg7 mi
8:35 am73 °FOvercast.12 mph83%30.20 "Hg7 mi
8:15 am71 °FFog.5 mph90%30.19 "Hg5 mi
7:55 am70 °FFog.6 mph93%30.19 "Hg5 mi
7:35 am69 °FFog.6 mph94%30.18 "Hg5 mi
6:55 am68 °FFog.5 mph96%30.17 "Hg5 mi
6:35 am68 °FFog.3 mph96%30.17 "Hg4 mi
6:15 am67 °FFog.3 mph96%30.16 "Hg5 mi
5:55 am68 °FClear.3 mph95%30.15 "Hg7 mi
5:35 am69 °FClear.3 mph93%30.14 "Hg7 mi
5:15 am69 °FClear.7 mph93%30.13 "Hg7 mi
4:55 am69 °FClear.6 mph94%30.13 "Hg7 mi
4:35 am69 °FClear.5 mph95%30.13 "Hg7 mi
4:15 am69 °FClear.5 mph95%30.13 "Hg7 mi
3:55 am69 °FClear.3 mph95%30.13 "Hg7 mi
3:35 am69 °FClear.3 mph94%30.13 "Hg7 mi
3:15 am69 °FClear.5 mph94%30.13 "Hg7 mi
2:55 am70 °FClear.6 mph93%30.13 "Hg7 mi
2:35 am71 °FClear.6 mph91%30.13 "Hg7 mi
2:15 am72 °FClear.7 mph91%30.13 "Hg7 mi
1:55 am72 °FClear.7 mph90%30.14 "Hg10 mi
1:35 am72 °FClear.7 mph90%30.14 "Hg7 mi
1:15 am73 °FClear.7 mph91%30.14 "Hg7 mi
12:55 am73 °FClear.8 mph90%30.13 "Hg7 mi
12:35 am74 °FClear.9 mph89%30.13 "Hg7 mi
12:15 am74 °FClear.9 mph89%30.13 "Hg10 mi
11:55 pm
Sat, Apr 29
75 °FClear.9 mph87%30.13 "Hg10 mi
11:35 pm76 °FClear.9 mph87%30.13 "Hg10 mi
11:15 pm76 °FClear.9 mph86%30.13 "Hg10 mi
10:55 pm76 °FClear.7 mph85%30.14 "Hg10 mi
10:35 pm76 °FClear.8 mph85%30.14 "Hg10 mi
10:15 pm77 °FClear.8 mph83%30.14 "Hg10 mi
9:55 pm77 °FClear.9 mph80%30.13 "Hg10 mi
9:35 pm77 °FClear.7 mph80%30.13 "Hg10 mi
9:15 pm78 °FClear.5 mph77%30.12 "Hg10 mi
8:55 pm78 °FClear.6 mph76%30.12 "Hg10 mi
8:15 pm80 °FClear.8 mph72%30.10 "Hg10 mi
7:55 pm81 °FClear.7 mph70%30.10 "Hg10 mi
7:35 pm82 °FSunny.7 mph68%30.10 "Hg10 mi
7:15 pm83 °FSunny.10 mph65%30.10 "Hg10 mi
6:55 pm83 °FSunny.10 mph68%30.10 "Hg10 mi
6:35 pm84 °FSunny.9 mph66%30.09 "Hg10 mi
5:55 pm85 °FSunny.10 mph64%30.09 "Hg10 mi
5:35 pm86 °FScattered clouds.9 mph64%30.09 "Hg10 mi
5:15 pm87 °FScattered clouds.7 mph61%30.10 "Hg10 mi
4:55 pm87 °FScattered clouds.9 mph61%30.10 "Hg10 mi
4:35 pm87 °FScattered clouds.9 mph63%30.10 "Hg10 mi
3:35 pm87 °FSunny.7 mph64%30.11 "Hg10 mi
3:15 pm87 °FScattered clouds.7 mph63%30.11 "Hg10 mi
2:55 pm87 °FScattered clouds.10 mph65%30.12 "Hg10 mi
2:35 pm87 °FSunny.8 mph66%30.12 "Hg10 mi
Weather by CustomWeather, © 2017

See weather overviewHow to use our weather pages